Location: Ponte Samoggia
(44.5667°N, 11.1333°E)
Time: 21:40:21
(UTC+00:00)

Okean 1-7 Rocket - Pass Details

Date: 26 May 2022
Orbit: 616 x 648 km, 82.5° (Epoch: 29 June)

Event Time Altitude Azimuth Distance (km) Brightness Sun altitude
Rises 02:48:23 0° 177° (S) 2,901 6.6 -7.9°
Reaches altitude 10° 02:50:38 10° 173° (S) 1,994 5.8 -7.6°
Maximum altitude 02:54:59 59° 95° (E) 722 4.2 -7.0°
Drops below altitude 10° 02:59:19 10° 16° (NNE) 1,995 7.1 -6.4°
Sets 03:01:34 0° 13° (NNE) 2,903 7.9 -6.1°
